[[{"header":{"parameterUnit":"m.s-1","parameterCategory":1,"la1":30.2991,"la2":30.254,"lo1":-89.0895,"lo2":-89.0444,"dy":0.0017,"dx":0.0017,"nx":28,"ny":28,"refTime":"2024-08-01T21:00:00:Z","depth":0,"parameterNumber":2,"parameterNumberName":"U-component_of_WINDS"},"data":[0,0,0,0,0,0,0,0,0,0,0,0,0,0,0,0,0,0,0,0,0,0,0,0,0,0,0,0,0,0,0,0,0,0,0,0,0,0,0,0,0,0,0,0,0,0,0,0,0,0,0,0,0,0,0,0,0,0,4.1008,4.101,0,4.1181,4.1182,4.1184,4.1117,4.1113,4.1109,4.1105,4.1287,4.1295,4.1304,0,0,0,0,0,0,0,0,0,0,0,0,0,4.0625,4.0632,4.1008,4.101,4.1013,4.118,4.1183,4.1185,4.1117,4.1112,4.1108,4.1103,4.1284,4.1294,4.1304,0,0,0,0,0,0,0,0,0,0,0,0,0,4.0794,4.0635,4.1008,4.0999,4.1,4.118,4.1183,4.1186,4.1118,4.1112,4.1106,4.1101,4.1281,4.1293,4.1306,4.1507,0,0,4.1345,4.1351,0,0,0,0,0,0,0,0,4.0784,4.0808,4.0998,4.1,4.1001,4.1121,4.1114,4.1293,4.112,4.1074,4.1105,4.1098,4.1237,4.1253,4.1299,4.1515,4.1523,4.1346,4.1354,4.136,4.1363,0,0,0,0,0,0,0,4.0773,4.08,4.1076,4.1001,4.1003,4.0988,4.1005,4.1148,4.1187,4.1077,4.1073,4.1094,4.1237,4.1286,4.1302,4.1526,4.1346,4.1358,4.1365,4.1371,4.1914,4.192,0,0,0,0,0,0,4.076,4.0791,4.1071,4.1082,4.0875,4.0999,4.1019,4.1089,4.1185,4.1194,4.1099,4.109,4.1267,4.1287,4.1309,4.1549,4.136,4.1372,4.1379,4.1907,4.1916,4.1923,0,0,0,0,0,0,4.0752,4.0786,4.1064,4.0935,4.0969,4.1012,4.1091,4.1095,4.1145,4.1202,4.1209,4.1142,4.1263,4.129,4.1457,4.1554,4.1378,4.1389,4.19,4.191,4.1919,4.2032,0,0,0,0,0,0,4.0741,4.0783,4.0859,4.0937,4.0977,4.1209,4.1097,4.1103,4.1167,4.1157,4.1244,4.1253,4.1261,4.1438,4.147,4.1569,4.1399,4.1891,4.1904,4.1916,4.202,4.2045,4.2066,0,0,0,0,0,4.0728,4.0885,4.0863,4.0897,4.1072,4.1215,4.1237,4.1241,4.1175,4.1252,4.1288,4.125,4.1539,4.1456,4.1491,4.1595,4.1885,4.19,4.1915,4.201,4.204,4.2066,0,0,0,0,0,0,4.082,4.0896,4.0872,4.1059,4.1131,4.1203,4.13,4.1274,4.1367,4.1354,4.1357,4.1377,4.1549,4.1589,4.1495,4.1794,4.1702,4.1725,4.1762,4.1791,4.1814,4.1801,4.141,0,0,0,0,0,4.0861,4.0969,4.103,4.119,4.1227,4.1257,4.132,4.1316,4.1392,4.1422,4.147,4.1546,4.1653,4.1725,4.1827,4.2025,4.2043,4.2114,4.2137,4.2156,4.2176,4.2283,4.2315,4.1972,4.1972,4.1972,0,0,4.0949,4.1004,4.1073,4.121,4.1265,4.1377,4.1284,4.1407,4.1491,4.1441,4.1601,4.1639,4.1724,4.1907,4.199,4.1946,4.2274,4.2175,4.219,4.22,4.2302,4.2334,4.2363,4.1983,4.1981,4.1979,0,0,4.1167,4.1219,4.1357,4.1414,4.1497,4.1516,4.155,4.1626,4.1649,4.1808,4.1773,4.1874,4.2059,4.212,4.2176,4.2415,4.2384,4.2449,4.2569,4.2674,4.2701,4.2725,4.281,4.284,4.2468,4.2468,4.2469,0,4.1266,4.1433,4.1432,4.1558,4.1619,4.1577,4.1717,4.1773,4.1887,4.1931,4.1878,4.2109,4.2163,4.2359,4.2417,4.2464,4.2502,4.2439,4.2697,4.2721,4.2743,4.2824,4.2856,4.2476,4.2475,4.2474,4.2473,0,4.1551,4.1667,4.1769,4.1877,4.195,4.2083,4.2102,4.2177,4.2167,4.2192,4.2355,4.2418,4.2532,4.2578,4.2571,4.2774,4.2743,4.2694,4.2602,4.2783,4.2859,4.289,4.2486,4.2484,4.2481,4.248,0,0,4.1832,4.1936,4.1974,4.2022,4.211,4.2201,4.2332,4.2441,4.2504,4.2584,4.2694,4.2851,4.2805,4.2869,4.2868,4.296,4.3144,4.2899,4.2901,4.2942,4.3371,4.3407,4.3443,4.3124,4.313,4.3134,4.3364,0,4.2056,4.2283,4.2285,4.2495,4.2602,4.2563,4.2677,4.2745,4.2771,4.2867,4.2897,4.3008,4.294,4.2978,4.3067,4.3103,4.323,4.3086,4.3227,4.3232,4.3206,4.3483,4.3522,4.3735,4.3393,4.3399,4.3402,0,4.2348,4.2434,4.2654,4.2726,4.2771,4.2873,4.2972,4.3064,4.314,4.3153,4.3223,4.3208,4.3342,4.3245,4.343,4.3332,4.3389,4.3416,4.3424,4.3437,4.3328,4.3503,4.3803,4.3835,4.3449,4.3445,4.3442,0,4.253,4.2702,4.2855,4.2898,4.2985,4.3058,4.3098,4.3167,4.3232,4.332,4.3362,4.3465,4.3522,4.3602,4.3616,4.3544,4.3801,4.3705,4.3816,4.3816,4.3873,4.3869,4.4186,4.3911,4.391,4.3909,4.3909,0,4.278,4.2916,4.2938,4.3032,4.3183,4.3185,4.3335,4.337,4.3431,4.3532,4.3506,4.3602,4.3613,4.3713,4.3724,4.3876,4.3902,4.3916,4.3918,4.3919,4.3917,4.3956,4.3942,4.3918,4.3916,4.3914,4.3913,0,4.3009,4.3029,4.3193,4.3262,4.3283,4.3391,4.345,4.3541,4.3564,4.3692,4.3723,4.376,4.3875,4.3896,4.4033,4.4041,4.4221,4.4208,4.4195,4.4193,4.4303,4.4292,4.4656,4.4704,4.4398,4.4401,4.4403,0,4.3167,4.327,4.3349,4.3414,4.3457,4.3562,4.3627,4.3633,4.3703,4.3796,4.3875,4.3987,4.4077,4.4263,4.4304,4.4408,4.4397,4.4517,4.4412,4.441,4.4398,4.4391,4.4401,4.4537,4.4541,4.4543,4.4546,0,4.3444,4.3449,4.3543,4.3641,4.3719,4.3798,4.3872,4.3927,4.3942,4.4022,4.4138,4.4208,4.4346,4.4457,4.4561,4.4604,4.4578,4.4578,4.4609,4.4611,4.4599,4.4606,4.4249,4.457,4.4567,4.4566,4.4564,4.4563,4.3642,4.3732,4.3801,4.3907,4.3962,4.4032,4.412,4.4153,4.4249,4.4361,4.4359,4.4486,4.4559,4.4695,4.4744,4.4845,4.4807,4.4852,4.4863,4.4874,4.4884,4.4583,4.4864,4.4863,4.4863,4.4862,4.4862,0,4.3918,4.396,4.4057,4.416,4.4244,4.421,4.429,4.4362,4.4474,4.4543,4.4631,4.4764,4.4872,4.492,4.5027,4.5098,4.5089,4.5126,4.512,4.513,4.4913,4.4875,4.5131,4.5131,4.5131,4.5131,4.5131,4.5131,4.4071,4.422,4.4233,4.4409,4.4451,4.4574,4.4622,4.4686,4.4741,4.489,4.4979,4.5009,4.5069,4.518,4.5277,4.5289,4.5329,4.5371,4.5378,4.5173,4.5146,4.512,4.5084,4.538,4.5381,4.5587,4.5588,4.559]},{"header":{"parameterUnit":"m.s-1","parameterCategory":1,"la1":30.2991,"la2":30.254,"lo1":-89.0895,"lo2":-89.0444,"dy":0.0017,"dx":0.0017,"nx":28,"ny":28,"refTime":"2024-08-01T21:00:00:Z","depth":0,"parameterNumber":3,"parameterNumberName":"V-component_of_WINDS"},"data":[0,0,0,0,0,0,0,0,0,0,0,0,0,0,0,0,0,0,0,0,0,0,0,0,0,0,0,0,0,0,0,0,0,0,0,0,0,0,0,0,0,0,0,0,0,0,0,0,0,0,0,0,0,0,0,0,0,0,3.3506,3.3508,0,3.367,3.3672,3.3674,3.365,3.3647,3.3644,3.3642,3.3809,3.3816,3.3823,0,0,0,0,0,0,0,0,0,0,0,0,0,3.3172,3.3179,3.3506,3.3508,3.351,3.367,3.3672,3.3674,3.365,3.3647,3.3644,3.364,3.3807,3.3815,3.3824,0,0,0,0,0,0,0,0,0,0,0,0,0,3.3325,3.3181,3.3506,3.3518,3.352,3.3669,3.3672,3.3675,3.3651,3.3647,3.3643,3.3639,3.3804,3.3815,3.3825,3.3973,0,0,3.3857,3.3862,0,0,0,0,0,0,0,0,3.3316,3.3337,3.3514,3.3517,3.352,3.3635,3.3616,3.3775,3.3652,3.3601,3.3642,3.3637,3.3755,3.3769,3.3809,3.3981,3.3988,3.3858,3.3865,3.3869,3.3872,0,0,0,0,0,0,0,3.3306,3.333,3.3571,3.3516,3.352,3.3514,3.3532,3.3646,3.3699,3.3605,3.3604,3.3624,3.3756,3.3799,3.3813,3.399,3.3858,3.3867,3.3874,3.3878,3.429,3.4295,0,0,0,0,0,0,3.3292,3.3321,3.3566,3.3576,3.3406,3.3524,3.3543,3.3603,3.3698,3.3708,3.3627,3.3622,3.3783,3.38,3.3818,3.3998,3.3869,3.3879,3.3885,3.4286,3.4291,3.4296,0,0,0,0,0,0,3.3285,3.3314,3.3559,3.3448,3.3479,3.3534,3.3601,3.3608,3.3651,3.3714,3.3724,3.3661,3.378,3.3804,3.3934,3.4003,3.3884,3.3893,3.428,3.4287,3.4294,3.4357,0,0,0,0,0,0,3.3275,3.3312,3.3369,3.345,3.3485,3.3673,3.3605,3.3614,3.3669,3.3664,3.3749,3.3759,3.3779,3.3919,3.3945,3.4015,3.3901,3.4274,3.4283,3.4292,3.4349,3.4365,3.4379,0,0,0,0,0,3.3264,3.338,3.3372,3.3401,3.3558,3.3677,3.3697,3.3718,3.3675,3.3732,3.3773,3.3756,3.3991,3.3932,3.3962,3.4036,3.427,3.4281,3.4291,3.4342,3.4362,3.4379,0,0,0,0,0,0,3.3306,3.3391,3.3383,3.3529,3.3596,3.3673,3.3746,3.3738,3.3818,3.381,3.3832,3.3851,3.3984,3.4023,3.3956,3.4184,3.4125,3.4141,3.4154,3.4173,3.4188,3.4176,3.391,0,0,0,0,0,3.3332,3.3422,3.3491,3.3614,3.3648,3.3691,3.3744,3.3754,3.3824,3.3852,3.3902,3.3971,3.406,3.4118,3.4204,3.4354,3.4372,3.442,3.4435,3.4447,3.4461,3.4543,3.4565,3.4331,3.4331,3.433,0,0,3.3388,3.3445,3.3501,3.3624,3.3677,3.3769,3.3715,3.3815,3.3884,3.3867,3.3994,3.4033,3.4111,3.4252,3.4316,3.4289,3.4529,3.446,3.4469,3.4477,3.4556,3.4578,3.4598,3.4338,3.4336,3.4335,0,0,3.3536,3.3588,3.3696,3.375,3.3831,3.3859,3.3884,3.3963,3.3988,3.4115,3.4104,3.4186,3.4339,3.4395,3.4443,3.4611,3.4599,3.4639,3.4717,3.4797,3.4815,3.4832,3.4892,3.4913,3.4653,3.4653,3.4653,0,3.3595,3.3734,3.3752,3.3854,3.3908,3.3896,3.4005,3.4057,3.4161,3.4199,3.4166,3.4358,3.4409,3.4563,3.4604,3.4643,3.4673,3.463,3.4811,3.4828,3.4843,3.4901,3.4923,3.4657,3.4657,3.4656,3.4656,0,3.3802,3.3898,3.3975,3.4076,3.4139,3.4244,3.4278,3.4339,3.4343,3.4374,3.4503,3.4565,3.4662,3.4699,3.4704,3.4854,3.4834,3.4806,3.4747,3.487,3.4924,3.4946,3.4663,3.4662,3.466,3.4659,0,0,3.3982,3.4092,3.412,3.4165,3.4253,3.4328,3.4431,3.4526,3.4579,3.4651,3.4738,3.4867,3.4842,3.4897,3.4908,3.4977,3.5106,3.4941,3.4943,3.4969,3.5274,3.5295,3.532,3.5098,3.5102,3.5106,3.5268,0,3.4139,3.4323,3.4342,3.4506,3.4595,3.4585,3.4675,3.4738,3.477,3.485,3.4884,3.4976,3.4935,3.4968,3.5036,3.5076,3.5168,3.5064,3.5179,3.5183,3.5161,3.5349,3.5371,3.5521,3.5289,3.5292,3.5295,0,3.4347,3.4425,3.4598,3.4672,3.471,3.4791,3.488,3.4956,3.5027,3.5045,3.5106,3.5108,3.5214,3.515,3.5297,3.5226,3.5274,3.5301,3.5307,3.5319,3.5247,3.5366,3.557,3.5592,3.5329,3.5326,3.5324,0,3.4462,3.461,3.4732,3.4771,3.4861,3.4918,3.4958,3.5026,3.5081,3.5158,3.5195,3.5283,3.5332,3.54,3.5425,3.5376,3.557,3.5508,3.5588,3.5587,3.563,3.5627,3.5845,3.566,3.566,3.5659,3.5659,0,3.4635,3.4741,3.4785,3.486,3.4978,3.4999,3.5115,3.5153,3.5212,3.5295,3.5291,3.5368,3.5396,3.5477,3.5497,3.5616,3.5638,3.5655,3.5659,3.5656,3.5654,3.5688,3.5679,3.5665,3.5664,3.5663,3.5662,0,3.4784,3.4817,3.495,3.5024,3.5045,3.5129,3.5192,3.5265,3.5294,3.5398,3.5424,3.5471,3.5567,3.5598,3.5714,3.5727,3.5865,3.586,3.5841,3.5842,3.592,3.5912,3.6168,3.6202,3.5994,3.5996,3.5998,0,3.4893,3.4974,3.5056,3.5111,3.5153,3.5242,3.5298,3.5321,3.538,3.5467,3.5529,3.5624,3.5701,3.5854,3.5899,3.5987,3.5984,3.6067,3.5997,3.5991,3.5986,3.5981,3.5989,3.6081,3.6083,3.6085,3.6086,0,3.5082,3.5094,3.5176,3.5264,3.5332,3.5402,3.547,3.5515,3.5547,3.5614,3.5712,3.5771,3.5889,3.5983,3.6073,3.6114,3.6106,3.6108,3.6131,3.6129,3.6114,3.6123,3.5878,3.6102,3.61,3.6099,3.6098,3.6098,3.5215,3.5286,3.5355,3.5446,3.55,3.5563,3.5635,3.5673,3.5755,3.5853,3.5861,3.5967,3.6035,3.6155,3.62,3.6282,3.6259,3.6292,3.6301,3.6309,3.6315,3.6101,3.6299,3.6298,3.6298,3.6297,3.6297,0,3.5404,3.5448,3.5531,3.5626,3.5698,3.5683,3.5757,3.5818,3.5911,3.5975,3.6051,3.6163,3.6254,3.6305,3.6396,3.6452,3.645,3.6475,3.6471,3.6481,3.6331,3.6302,3.6475,3.6475,3.6475,3.6475,3.6474,3.6474,3.5511,3.5632,3.5652,3.5798,3.5841,3.5944,3.5988,3.6046,3.6097,3.6223,3.6298,3.6331,3.639,3.6484,3.6567,3.6579,3.6613,3.664,3.6651,3.651,3.6491,3.6474,3.6447,3.6648,3.6648,3.6794,3.6795,3.6796]}]]